sat.trackr.live / text

‹ back to catalog

STARLINK-31734

NORAD 59534 · 2024-074A

PAYLOAD ACTIVE UNKNOWN

§ Identity

Operator
Country
US
Launch date
2024-04-18
Launch site
AFETR
Launch vehicle
Mass (kg)
RCS (m²)

Purposes: comms

External: N2YO · Heavens-Above · Gunter

§ Orbital elements

Epoch: 2026-09-21T03:38:37.578048Z

Period
94.27 min
Inclination
43.0030°
Eccentricity
0.0001238
Mean motion
15.27576265 rev/d
Perigee alt
482.2 km
Apogee alt
483.9 km
Semi-major
6,861.2 km
B*
4.1550e-6
RAAN
308.7653°
Arg perigee
275.2736°
Mean anomaly
84.7975°
Rev number
13,603

§ Raw data

STARLINK-317341 59534U 24074A   26264.15182382 -.00000148  00000+0  41550-5 0  99962 59534  43.0030 308.7653 0001238 275.2736  84.7975 15.27576265136035

JSON: /api/v1/satellites/59534 · /tle

For live sub-satellite position, see the globe view (requires WebGL).

§ Visibility from observer

Set your observer location to see the next 7 days of passes ≥ 10°. The values pass through the URL so the page stays shareable.

No JS? Fill the form by hand. The geolocation button needs JavaScript.